Date_and_time,latitude,longitude,wind_speed,RelWindDirFrom,WindDirFrom,air_pressure,air_temperature,relative_humidity,Temp,platform_speed_wrt_ground,air_pressure_at_mean_sea_level,platform_orientation
2018-07-04 23:40,50.9117266666667,-96.98253,15.0,29.2,240,984.51,23.3,41,21.08,0.0,1010.02,167.1
2018-07-04 23:50,50.9117416666667,-96.9825233333333,12.4,30.3,234,984.58,23.2,42,21.00,0.0,1010.10,167.1
2018-07-05 00:00,50.9117383333333,-96.98252,11.1,21.2,236,984.65,22.8,44,20.90,0.0,1010.19,350.2
2018-07-05 00:10,50.9117383333333,-96.9825266666667,12.8,25.6,233,984.78,22.8,43,20.76,0.0,1010.34,350.2
2018-07-05 00:20,50.911735,-96.9825233333333,12.1,22.0,244,984.86,22.4,45,20.68,0.0,1010.44,350.2
2018-07-05 00:30,50.911735,-96.9825233333333,13.6,24.8,243,984.96,22.1,46,20.56,0.0,1010.55,350.2
2018-07-05 00:40,50.9117333333333,-96.982525,12.6,22.2,247,985.16,22.4,44,20.47,0.0,1010.74,350.2
2018-07-05 00:50,50.911735,-96.982525,12.4,22.7,248,985.26,22.5,44,20.46,0.0,1010.85,350.2
2018-07-05 01:00,50.9116916666667,-96.9825183333333,14.3,26.2,243,985.37,21.9,45,20.40,0.0,1010.99,171.1
2018-07-05 01:10,50.9117616666667,-96.9825383333333,13.0,23.8,243,985.57,21.4,46,20.29,0.0,1011.22,171.1
2018-07-05 01:20,50.9117466666667,-96.98252,9.2,18.1,240,985.67,21.3,48,20.15,0.0,1011.34,171.1
2018-07-05 01:30,50.9117333333333,-96.982535,11.8,19.6,244,985.73,21.2,48,20.02,0.0,1011.41,171.1
2018-07-05 01:40,50.9117433333333,-96.98254,12.6,20.4,245,985.87,21.1,48,19.93,0.0,1011.57,171.1
2018-07-05 01:50,50.9117366666667,-96.98253,14.0,23.1,259,986.08,21.1,48,19.87,0.0,1011.80,171.1
2018-07-05 02:00,50.9117316666667,-96.98253,14.0,22.5,269,986.24,20.4,52,19.78,0.0,1012.00,0.0
2018-07-05 02:10,50.9117316666667,-96.9825316666667,14.5,22.5,265,986.53,19.9,54,19.59,0.0,1012.33,0.0
2018-07-05 02:20,50.9117266666667,-96.9825433333333,18.8,30.4,280,986.54,19.6,55,19.41,0.0,1012.37,0.0
2018-07-05 02:30,50.9117433333333,-96.982545,18.3,28.2,281,986.95,18.5,55,19.15,0.0,1012.83,0.0
2018-07-05 02:40,50.9117416666667,-96.9825333333333,17.5,25.2,280,987.29,18.1,53,18.83,0.0,1013.19,0.0
2018-07-05 02:50,50.911755,-96.98254,16.1,23.3,279,987.59,17.7,54,18.55,0.0,1013.54,0.0
2018-07-05 03:00,50.9117266666667,-96.982525,14.6,22.3,278,987.82,17.4,55,18.30,0.0,1013.81,192.9
2018-07-05 03:10,50.9117283333333,-96.9825316666667,13.7,19.6,276,988.18,17.2,55,18.08,0.0,1014.19,192.9
2018-07-05 03:20,50.9117316666667,-96.98253,17.4,24.6,276,988.29,17.4,54,17.94,0.0,1014.30,192.9
2018-07-05 03:30,50.9117333333333,-96.9825283333333,17.7,26.7,275,988.65,17.4,55,17.86,0.0,1014.68,192.9
2018-07-05 03:40,50.9117333333333,-96.9825266666667,18.2,26.8,275,988.96,17.2,55,17.79,0.0,1015.01,192.9
2018-07-05 03:50,50.911735,-96.9825283333333,20.2,28.3,282,989.16,16.8,55,17.67,0.0,1015.26,192.9
2018-07-05 04:00,50.9117316666667,-96.9825266666667,19.6,27.6,286,989.38,16.6,56,17.51,0.0,1015.52,360.0
2018-07-05 04:10,50.9117316666667,-96.98252,19.3,25.4,285,989.66,16.5,56,17.37,0.0,1015.83,360.0
2018-07-05 04:20,50.9117333333333,-96.98252,18.2,24.8,283,990.03,16.4,56,17.26,0.0,1016.26,360.0
2018-07-05 04:30,50.9117083333333,-96.9825083333333,16.1,24.5,283,990.43,16.1,58,17.17,0.0,1016.70,360.0
2018-07-05 04:40,50.911725,-96.9825266666667,14.6,21.6,285,990.70,15.9,59,17.04,0.0,1017.00,360.0
2018-07-05 04:50,50.91173,-96.9825316666667,14.6,19.9,279,990.95,15.7,60,16.91,0.0,1017.29,360.0
2018-07-05 05:00,50.9117316666667,-96.9825333333333,13.0,20.4,282,991.33,15.4,62,16.79,0.0,1017.69,270.0
2018-07-05 05:10,50.911735,-96.9825333333333,13.9,20.1,285,991.44,15.2,64,16.65,0.0,1017.81,270.0
2018-07-05 05:20,50.911735,-96.9825333333333,13.7,19.2,284,991.60,15.0,65,16.51,0.0,1017.98,270.0
2018-07-05 05:30,50.91172,-96.9825166666667,11.1,15.2,277,992.01,14.8,66,16.39,0.0,1018.42,270.0
2018-07-05 05:40,50.91174,-96.9825266666667,10.7,14.2,276,992.36,14.7,67,16.28,0.0,1018.80,270.0
2018-07-05 05:50,50.911735,-96.9825333333333,10.7,15.6,273,992.51,14.5,69,16.18,0.0,1018.99,270.0
2018-07-05 06:00,50.9117316666667,-96.9825283333333,11.9,16.1,275,992.56,14.4,70,16.07,0.0,1019.04,90.0
2018-07-05 06:10,50.9117316666667,-96.982525,11.2,18.0,279,992.65,14.4,70,15.97,0.0,1019.13,90.0
2018-07-05 06:20,50.9117083333333,-96.9825483333333,9.2,13.6,270,992.98,14.1,72,15.89,0.0,1019.50,90.0
2018-07-05 06:30,50.9117116666667,-96.9825366666667,12.9,18.0,277,992.87,14.0,72,15.79,0.0,1019.40,90.0
2018-07-05 06:40,50.91173,-96.9825283333333,14.3,18.4,287,992.78,14.1,70,15.67,0.0,1019.32,90.0
2018-07-05 06:50,50.9117283333333,-96.98253,13.5,17.6,288,992.91,14.1,70,15.59,0.0,1019.47,90.0
2018-07-05 07:00,50.9117283333333,-96.98252,11.0,16.2,281,993.23,14.0,70,15.52,0.0,1019.81,90.0
2018-07-05 07:10,50.9117333333333,-96.982525,9.6,14.1,274,993.43,13.8,71,15.48,0.0,1020.03,90.0
2018-07-05 07:20,50.911735,-96.9825266666667,9.6,13.4,276,993.46,13.6,73,15.41,0.0,1020.08,90.0
2018-07-05 07:30,50.9117366666667,-96.9825266666667,10.8,15.3,275,993.60,13.4,74,15.32,0.0,1020.23,90.0
2018-07-05 07:40,50.911735,-96.9825283333333,9.8,14.5,271,993.92,13.3,76,15.22,0.0,1020.59,90.0
2018-07-05 07:50,50.9117333333333,-96.9825266666667,10.2,16.2,273,994.07,13.2,77,15.14,0.0,1020.74,90.0
2018-07-05 08:00,50.9117316666667,-96.9825266666667,10.5,16.0,276,994.34,13.1,78,15.06,0.0,1021.03,90.0
2018-07-05 08:10,50.9117333333333,-96.9825266666667,11.2,15.8,285,994.46,13.0,79,14.97,0.0,1021.17,90.0
2018-07-05 08:20,50.9117333333333,-96.982525,9.3,13.3,285,994.67,12.7,80,14.87,0.0,1021.40,90.0
2018-07-05 08:30,50.9117,-96.9825266666667,11.3,18.4,288,994.72,12.5,80,14.76,0.0,1021.45,90.0
2018-07-05 08:40,50.91172,-96.9825283333333,10.2,13.7,282,994.90,12.4,79,14.64,0.0,1021.64,90.0
2018-07-05 08:50,50.9117333333333,-96.9825066666667,10.2,15.9,280,995.02,12.4,77,14.55,0.0,1021.77,90.0
2018-07-05 09:00,50.9117233333333,-96.9825266666667,10.9,14.9,284,995.10,12.2,77,14.45,0.0,1021.88,142.5
2018-07-05 09:10,50.9117266666667,-96.982525,10.0,13.2,280,995.44,12.0,77,14.35,0.0,1022.24,142.5
2018-07-05 09:20,50.911725,-96.9825233333333,8.9,11.8,277,995.62,12.0,77,14.26,0.0,1022.44,142.5
2018-07-05 09:30,50.91175,-96.9825216666667,8.6,12.3,273,995.84,11.9,77,14.19,0.0,1022.67,142.5
2018-07-05 09:40,50.91172,-96.9825233333333,8.0,12.5,275,995.88,11.8,77,14.13,0.0,1022.72,142.5
2018-07-05 09:50,50.9117266666667,-96.982525,6.4,9.7,271,995.96,11.7,78,14.08,0.0,1022.82,142.5
2018-07-05 10:00,50.9117183333333,-96.9825366666667,8.0,10.9,271,996.03,11.6,78,14.04,0.0,1022.90,360.0
2018-07-05 10:10,50.91173,-96.9825266666667,7.8,10.8,272,996.13,11.4,79,13.96,0.0,1023.02,360.0
2018-07-05 10:20,50.911735,-96.9825283333333,6.8,9.2,260,996.26,11.4,79,13.89,0.0,1023.17,360.0
2018-07-05 10:30,50.911735,-96.9825283333333,5.7,8.9,254,996.53,11.0,81,13.82,0.0,1023.47,360.0
2018-07-05 10:40,50.911735,-96.9825416666667,4.9,8.2,247,996.73,10.8,82,13.77,0.0,1023.68,360.0
2018-07-05 10:50,50.9117316666667,-96.982525,5.3,8.3,248,996.87,10.7,82,13.72,0.0,1023.85,360.0
2018-07-05 11:00,50.9117283333333,-96.9825233333333,6.1,10.0,254,996.95,10.7,82,13.67,0.0,1023.93,90.0
2018-07-05 11:10,50.9117283333333,-96.982525,6.6,9.3,254,997.04,10.8,81,13.63,0.0,1024.03,90.0
2018-07-05 11:20,50.91174,-96.9825316666667,6.3,10.2,255,997.17,10.9,80,13.60,0.0,1024.16,90.0
2018-07-05 11:30,50.9117483333333,-96.982525,6.9,10.3,260,997.30,11.3,78,13.60,0.0,1024.27,90.0
2018-07-05 11:40,50.911745,-96.9825266666667,7.7,11.8,263,997.46,12.0,76,13.62,0.0,1024.41,90.0
2018-07-05 11:50,50.911745,-96.982525,8.3,11.7,263,997.49,12.7,74,13.70,0.0,1024.42,90.0
2018-07-05 12:00,50.911725,-96.98251,8.9,14.2,264,997.52,13.2,72,13.83,0.0,1024.43,90.0
2018-07-05 12:10,50.911725,-96.98252,8.1,12.6,267,997.73,13.5,72,13.97,0.0,1024.64,90.0
2018-07-05 12:20,50.9117483333333,-96.9825333333333,8.0,12.5,266,997.92,13.7,73,14.11,0.0,1024.83,90.0
2018-07-05 12:30,50.9117716666667,-96.982525,7.7,11.5,265,998.13,13.9,73,14.24,0.0,1025.05,90.0
2018-07-05 12:40,50.9117416666667,-96.98251,9.2,14.9,266,998.27,14.2,72,14.38,0.0,1025.18,90.0
2018-07-05 12:50,50.91174,-96.9825183333333,8.8,12.6,272,998.34,14.7,71,14.53,0.0,1025.23,90.0
2018-07-05 13:00,50.9117166666667,-96.9825016666667,10.2,15.9,274,998.46,15.2,70,14.70,0.0,1025.33,90.0
2018-07-05 13:10,50.9117283333333,-96.98252,9.2,13.1,279,998.66,15.5,70,14.88,0.0,1025.51,90.0
2018-07-05 13:20,50.9117283333333,-96.98252,9.6,13.6,277,998.74,15.8,69,15.05,0.0,1025.56,90.0
2018-07-05 13:30,50.9117283333333,-96.9825233333333,10.5,14.8,281,998.79,16.0,69,15.22,0.0,1025.57,90.0
2018-07-05 13:40,50.9117283333333,-96.982525,11.5,16.9,285,998.78,16.3,68,15.38,0.0,1025.52,90.0
2018-07-05 13:50,50.91172,-96.9825266666667,11.2,14.9,286,998.80,16.6,68,15.55,0.0,1025.50,90.0
2018-07-05 14:00,50.91173,-96.9825216666667,11.8,16.9,292,998.75,16.8,68,15.72,0.0,1025.42,90.0
2018-07-05 14:10,50.911735,-96.98253,9.8,14.2,296,998.94,17.2,67,15.84,0.0,1025.60,90.0
2018-07-05 14:20,50.91173,-96.9825216666667,10.9,16.2,289,999.07,17.5,66,15.99,0.0,1025.70,90.0
2018-07-05 14:30,50.91173,-96.9825233333333,10.0,15.4,297,999.11,17.7,66,16.13,0.0,1025.72,90.0
2018-07-05 14:40,50.9117316666667,-96.9825216666667,9.8,16.5,295,999.11,17.9,65,16.25,0.0,1025.68,90.0
2018-07-05 14:50,50.9117316666667,-96.9825233333333,9.7,14.3,302,999.15,18.2,64,16.36,0.0,1025.69,90.0
2018-07-05 15:00,50.9117333333333,-96.9825233333333,10.3,13.9,290,999.11,18.5,63,16.48,0.0,1025.63,312.1
2018-07-05 15:10,50.9117316666667,-96.982525,9.2,14.1,288,999.21,18.8,62,16.65,0.0,1025.69,312.1
2018-07-05 15:20,50.9117316666667,-96.982525,9.5,14.1,285,999.24,19.0,62,16.80,0.0,1025.71,312.1
2018-07-05 15:30,50.9117366666667,-96.98256,8.6,13.7,293,999.37,19.2,61,16.91,0.0,1025.82,312.1
2018-07-05 15:40,50.9117166666667,-96.9825366666667,8.5,13.4,296,999.38,19.5,59,16.98,0.0,1025.80,312.1
2018-07-05 15:50,50.9117416666667,-96.9825416666667,10.7,14.5,284,999.34,19.6,58,17.11,0.0,1025.75,312.1
2018-07-05 16:00,50.911725,-96.9825333333333,11.0,15.7,284,999.42,19.8,58,17.32,0.0,1025.80,297.0
2018-07-05 16:10,50.9117283333333,-96.982535,10.7,16.0,289,999.46,19.9,58,17.49,0.0,1025.83,297.0
2018-07-05 16:20,50.911745,-96.9825616666667,9.6,17.5,290,999.61,20.1,57,17.60,0.0,1025.96,297.0
2018-07-05 16:30,50.9117416666667,-96.9825483333333,8.3,14.9,296,999.75,20.4,56,17.71,0.0,1026.08,297.0
2018-07-05 16:40,50.9117233333333,-96.9825133333333,7.7,12.5,286,999.98,20.6,56,17.74,0.0,1026.30,297.0
2018-07-05 16:50,50.9117283333333,-96.98253,9.4,14.2,288,1000.04,20.6,55,17.82,0.0,1026.34,297.0
2018-07-05 17:00,50.9117266666667,-96.9825283333333,8.7,15.1,288,1000.09,20.6,54,17.90,0.0,1026.38,270.0
2018-07-05 17:10,50.9117233333333,-96.98253,9.0,14.0,299,1000.12,21.2,53,17.97,0.0,1026.37,270.0
2018-07-05 17:20,50.9117233333333,-96.9825283333333,9.5,16.0,284,1000.18,21.2,52,18.09,0.0,1026.43,270.0
2018-07-05 17:30,50.911725,-96.9825233333333,8.6,15.9,290,1000.28,21.3,51,18.22,0.0,1026.51,270.0
2018-07-05 17:40,50.911725,-96.98254,9.1,15.0,282,1000.24,21.6,50,18.33,0.0,1026.45,270.0
2018-07-05 17:50,50.911725,-96.982535,10.0,16.7,280,1000.21,21.9,49,18.49,0.0,1026.40,270.0
2018-07-05 18:00,50.9117416666667,-96.982525,10.4,16.1,289,1000.20,22.0,48,18.65,0.0,1026.38,347.1
2018-07-05 18:10,50.9117266666667,-96.9825216666667,9.8,15.6,293,1000.30,22.1,48,18.81,0.0,1026.47,347.1
2018-07-05 18:20,50.9117266666667,-96.9825216666667,8.9,16.7,284,1000.34,21.9,48,18.81,0.0,1026.50,347.1
2018-07-05 18:30,50.9117283333333,-96.9825383333333,7.3,12.4,290,1000.35,22.6,47,18.86,0.0,1026.48,347.1
2018-07-05 18:40,50.9117283333333,-96.9825283333333,8.1,13.3,283,1000.32,22.9,45,18.94,0.0,1026.43,347.1
2018-07-05 18:50,50.9117383333333,-96.9824983333333,8.8,15.2,269,1000.29,22.8,46,19.05,0.0,1026.41,347.1
2018-07-05 19:00,50.9117366666667,-96.982535,8.3,13.1,272,1000.31,22.9,45,19.18,0.0,1026.39,360.0
2018-07-05 19:10,50.9117316666667,-96.9825333333333,10.8,17.9,291,1000.17,23.0,44,19.27,0.0,1026.24,360.0
2018-07-05 19:20,50.911735,-96.98253,8.3,14.0,285,1000.29,23.4,43,19.41,0.0,1026.35,360.0
2018-07-05 19:30,50.9117366666667,-96.9825283333333,11.2,18.2,277,1000.21,23.6,41,19.53,0.0,1026.24,360.0
2018-07-05 19:40,50.9117366666667,-96.9825266666667,11.5,16.3,278,1000.20,23.6,40,19.76,0.0,1026.21,360.0
2018-07-05 19:50,50.9117333333333,-96.98254,9.9,14.8,281,1000.22,24.0,39,19.96,0.0,1026.21,360.0
2018-07-05 20:00,50.91174,-96.9825366666667,8.5,14.7,295,1000.23,23.6,41,20.06,0.0,1026.24,347.1
2018-07-05 20:10,50.9117366666667,-96.98253,8.7,15.6,301,1000.14,23.7,40,19.92,0.0,1026.15,347.1
2018-07-05 20:20,50.911735,-96.98253,9.1,16.1,289,1000.05,24.1,38,19.95,0.0,1026.01,347.1
2018-07-05 20:30,50.9117366666667,-96.9825266666667,10.9,16.4,289,1000.01,24.1,37,20.06,0.0,1025.96,347.1
2018-07-05 20:40,50.911735,-96.982525,8.9,14.7,307,1000.06,23.8,39,20.06,0.0,1026.03,347.1
2018-07-05 20:50,50.911735,-96.9825233333333,8.1,14.7,297,999.97,24.3,36,19.98,0.0,1025.91,347.1
2018-07-05 21:00,50.9117333333333,-96.9825233333333,11.0,16.4,282,999.86,24.3,36,20.12,0.0,1025.79,167.1
2018-07-05 21:10,50.9117166666667,-96.9825433333333,11.1,17.8,283,999.87,24.7,35,20.32,0.0,1025.77,167.1
2018-07-05 21:20,50.91172,-96.9825383333333,11.0,16.7,279,999.96,24.4,35,20.48,0.0,1025.86,167.1
2018-07-05 21:30,50.9116866666667,-96.9825,11.0,15.8,278,999.95,24.6,34,20.62,0.0,1025.85,167.1
2018-07-05 21:40,50.91174,-96.982525,11.7,16.8,285,999.86,24.8,33,20.77,0.0,1025.72,167.1
2018-07-05 21:50,50.9117283333333,-96.982565,11.5,15.8,272,999.89,24.8,32,20.91,0.0,1025.77,167.1
2018-07-05 22:00,50.9117266666667,-96.9825583333333,11.2,18.7,280,999.90,24.8,32,20.98,0.0,1025.78,253.0
2018-07-05 22:10,50.911725,-96.9825466666667,10.0,16.4,275,999.96,25.0,32,21.01,0.0,1025.81,253.0
2018-07-05 22:20,50.9117233333333,-96.9825233333333,12.2,16.5,283,999.85,24.8,30,21.05,0.0,1025.71,253.0
2018-07-05 22:30,50.911735,-96.9825283333333,12.1,17.0,274,999.82,24.7,29,21.11,0.0,1025.70,253.0
2018-07-05 22:40,50.9117233333333,-96.9825283333333,11.0,16.3,271,999.80,24.8,28,21.16,0.0,1025.65,253.0
2018-07-05 22:50,50.9117233333333,-96.982525,9.7,16.0,280,999.83,24.8,27,21.20,0.0,1025.67,253.0
2018-07-05 23:00,50.9117266666667,-96.9825266666667,10.0,17.1,278,999.82,24.9,28,21.16,0.0,1025.65,167.1
2018-07-05 23:10,50.911735,-96.9825316666667,12.0,17.9,272,999.78,24.8,26,21.15,0.0,1025.62,167.1
2018-07-05 23:20,50.91174,-96.982525,12.3,17.3,280,999.69,24.7,26,21.21,0.0,1025.53,167.1
2018-07-05 23:30,50.91174,-96.9825216666667,11.1,16.5,286,999.71,24.7,27,21.25,0.0,1025.54,167.1
2018-07-05 23:40,50.9117316666667,-96.9825333333333,10.7,18.0,288,999.65,24.7,28,21.24,0.0,1025.48,167.1
2018-07-05 23:50,50.9117366666667,-96.9825266666667,12.0,16.8,290,999.62,24.6,28,21.22,0.0,1025.45,167.1
